Location: Newark
(48.1500°N, 13.1167°E)
Time: 12:56:13
(UTC+00:00)

BEESAT - Visible Passes

Search period start: 06 December 2021 00:00
Search period end: 16 December 2021 00:00
Orbit: 700 x 707 km, 98.6° (Epoch: 05 December)

Date Brightness Start Highest point End Pass type
(mag) Time Alt. Az. Time Alt. Az. Time Alt. Az.
06 Dec ? 04:40:52 10° ESE 04:44:30 22° ENE 04:48:10 10° N visible
07 Dec ? 05:22:47 10° SE 05:27:21 49° ENE 05:31:59 10° N visible
08 Dec ? 04:30:03 10° E 04:33:15 18° ENE 04:36:28 10° NNE visible
08 Dec ? 06:05:44 10° S 06:10:29 70° WSW 06:15:17 10° NNW visible
09 Dec ? 05:11:38 10° SE 05:16:02 39° ENE 05:20:30 10° N visible
10 Dec ? 04:19:24 10° E 04:22:02 15° NE 04:24:40 10° NNE visible
10 Dec ? 05:54:19 10° SSE 05:59:05 88° WSW 06:03:55 10° NNW visible
11 Dec ? 05:00:34 10° SE 05:04:45 31° ENE 05:08:58 10° N visible
12 Dec ? 04:09:02 10° ENE 04:10:50 12° NE 04:12:37 10° NNE visible
12 Dec ? 05:42:58 10° SSE 05:47:43 73° ENE 05:52:31 10° N visible
13 Dec ? 04:49:34 10° ESE 04:53:28 26° ENE 04:57:23 10° N visible
14 Dec ? 05:31:42 10° SSE 05:36:22 58° ENE 05:41:05 10° N visible
15 Dec ? 04:38:41 10° ESE 04:42:12 21° ENE 04:45:44 10° NNE visible
